Tracking 29892 objects as of 21-Nov-2024
HD Live streaming from Space Station
objects crossing your sky now

NOAA 16 DEB

Track NOAA 16 DEB now!
10-day predictions


NORAD ID: 41060
Int'l Code: 2000-055T
Perigee: 719.8 km
Apogee: 836.8 km
Inclination: 99.0 °
Period: 100.3 minutes
Semi major axis: 7149 km
RCS: Unknown
Launch date: September 21, 2000
Source: United States (US)
Launch site: AIR FORCE WESTERN TEST RANGE (AFWTR)

Note: This is SATELLITE DEBRIS
Your satellite tracking list
Your tracking list is empty




NASA's NSSDC Master Catalog

Two Line Element Set (TLE):
1 41060U 00055T   24325.60052671  .00004262  00000-0  14226-2 0  9995
2 41060  99.0158 185.6705 0081789 319.2371  40.2712 14.36170301469355
Source of the keplerian elements: AFSPC